#timestamp,LO_Frequency,Hit 
1504353615.5,286046998.9,N
1504353635.3,286047004.2,N
1504353655.2,286047000.0,N
1504353675.9,286046999.6,N
1504353695.7,286046997.4,N
1504353715.6,286047000.0,N
1504353735.4,286047015.9,P
1504353755.2,286047028.5,P
1504353775.1,286047036.5,P
1504353776.0,286047036.5,N
1504353795.8,286047022.7,N
1504353815.6,286047019.6,N
1504353835.5,286047010.3,N
1504353855.3,286047006.7,N
1504353875.1,286047010.3,N
1504353895.9,286047008.6,N
1504353915.7,286047006.4,N
1504353935.5,286047007.5,N
1504353955.4,286047005.8,N
1504353975.2,286047013.3,N
1504353995.0,286047016.0,N
1504353995.9,286047016.0,N
1504354015.7,286047019.3,N
1504354035.6,286047019.7,N
1504354055.4,286047018.8,N
1504354075.2,286047016.9,N
1504354095.1,286047016.1,N
1504354096.0,286047016.1,N
1504354115.8,286047017.4,N
1504354135.6,286047024.8,N
1504354155.5,286047020.6,N
1504354175.3,286047019.6,N
1504354195.1,286047018.5,N
1504354215.9,286047020.9,N
1504354235.7,286047020.8,N
1504354255.5,286047012.8,N
1504354275.4,286047008.9,N
1504354295.2,286047004.9,N
1504354315.0,286047010.2,N
1504354315.9,286047010.2,N
1504354335.7,286047001.9,N
1504354355.6,286047002.5,N
1504354375.4,286047007.6,N
1504354395.2,286047008.9,N
1504354415.1,286047007.7,N
1504354416.0,286047007.7,N
1504354435.8,286047008.2,N
1504354455.6,286047011.0,N
1504354475.5,286047025.2,P
1504354495.3,286047007.2,N
1504354515.1,286047008.6,N
1504354535.9,286047000.1,N
1504354555.7,286047003.9,N
1504354575.5,286047005.9,N
1504354595.4,286047004.3,N
1504354615.2,286047001.2,N
1504354635.0,286046995.2,N
1504354635.9,286046995.2,N
1504354655.8,286046993.0,N
1504354675.6,286046988.9,N
1504354695.4,286046990.3,N
1504354715.3,286046993.4,N
1504354735.1,286046993.4,N
1504354736.0,286046993.4,N
1504354755.8,286046997.8,N
1504354775.7,286047000.4,N
1504354795.5,286046995.7,N
1504354815.3,286046995.0,N
1504354835.1,286046997.5,N
1504354855.9,286046995.1,N
1504354875.7,286046994.6,N
1504354895.5,286046996.4,N
1504354915.4,286046992.4,N
1504354935.2,286046993.2,N
1504354955.0,286046994.8,N
1504354955.9,286046994.8,N
1504354975.8,286046986.9,N
1504354995.6,286046989.9,N
1504355015.4,286046995.9,N
1504355035.3,286047004.2,N
1504355055.1,286047003.7,N
1504355056.0,286047003.7,N
1504355075.8,286047002.9,N
1504355095.7,286047004.4,N
1504355115.5,286047003.3,N
1504355135.3,286047006.5,N
1504355155.2,286047009.0,N
1504355175.9,286047002.3,N
1504355195.7,286046996.8,N
1504355215.5,286047001.0,N
1504355235.4,286046994.8,N
1504355255.2,286047010.7,N
1504355275.0,286047009.8,N
1504355275.9,286047009.8,N
1504355295.8,286047012.0,N
1504355315.6,286047009.2,N
1504355335.4,286047004.8,N
1504355355.3,286047003.6,N
1504355375.1,286047004.2,N
1504355395.8,286047007.4,N
1504355415.7,286047009.0,N
1504355435.5,286047008.5,N
1504355455.3,286047007.4,N
1504355475.2,286047004.0,N
1504355495.9,286047001.3,N
1504355515.7,286047005.9,N
1504355535.6,286047005.7,N
1504355555.4,286047003.4,N
1504355575.2,286047000.7,N
1504355595.0,286047010.7,N
1504355595.9,286047010.7,N
1504355615.8,286047015.0,P
1504355635.6,286047007.3,N
1504355655.5,286047000.0,N
1504355675.3,286047000.8,N
1504355695.1,286046996.6,N
1504355715.8,286046999.8,N
1504355735.7,286046998.5,N
1504355755.5,286046996.8,N
1504355775.3,286046996.4,N
1504355795.2,286046997.5,N
1504355815.9,286046997.9,N
1504355835.7,286046993.4,N
1504355855.6,286046997.3,N
1504355875.4,286046995.1,N
1504355895.2,286046995.9,N
1504355915.1,286046995.4,N
1504355916.0,286046995.4,N
1504355935.8,286046996.4,N
1504355955.6,286046995.3,N
1504355975.5,286046997.5,N
1504355995.3,286046994.5,N
1504356015.1,286046994.0,N
1504356035.8,286046993.1,N
1504356055.7,286046988.9,N
1504356075.5,286046987.7,N
1504356095.3,286046989.7,N
1504356115.2,286046988.3,N
1504356135.9,286046987.7,N
1504356155.7,286046986.8,N
1504356175.6,286046985.5,N
1504356195.4,286046990.0,N
1504356215.2,286046992.7,N
1504356235.1,286046994.2,N
1504356236.0,286046994.2,N
1504356255.8,286046989.7,N
1504356275.6,286046986.9,P
1504356295.5,286046996.4,N
1504356315.3,286046995.7,N
1504356335.1,286046997.1,N
1504356355.9,286046997.0,N
1504356375.7,286046995.3,N
1504356395.5,286047000.7,N
1504356415.3,286047002.7,N
1504356435.2,286047001.4,N
1504356455.0,286046996.6,N
1504356455.9,286046996.6,N
1504356475.7,286046999.7,N
1504356495.6,286047002.9,N
1504356515.4,286046998.1,N
1504356535.2,286046995.2,N
1504356555.1,286046991.9,N
1504356556.0,286046991.9,N
1504356575.8,286046988.5,N
1504356595.6,286046988.5,N
1504356615.5,286046993.6,N
1504356635.3,286046995.5,N
1504356655.1,286046991.5,N
1504356675.9,286046991.3,N
1504356695.7,286046991.2,N
1504356715.5,286046989.7,N
1504356735.4,286046984.0,P
1504356755.2,286046989.0,N
1504356775.0,286046991.6,N
1504356775.9,286046991.6,N
1504356795.8,286046988.5,P
1504356815.6,286047001.8,N
1504356835.4,286046999.7,N
1504356855.3,286046997.3,N
1504356875.1,286046994.4,N
1504356876.0,286046994.4,N
1504356895.8,286046991.9,N
1504356915.7,286046994.7,N
1504356935.5,286046997.3,N
1504356955.3,286046996.9,N
1504356975.2,286046995.1,N
1504356995.9,286046993.9,N
1504357015.7,286046996.2,N
1504357035.5,286046998.2,N
1504357055.4,286047001.9,N
1504357075.2,286047002.5,N
1504357095.0,286046999.4,N
1504357095.9,286046999.4,N
1504357115.8,286046998.6,N
1504357135.6,286046999.1,N
1504357155.4,286047000.6,N
1504357175.3,286047000.8,N
1504357195.1,286047002.1,N
1504357196.0,286047002.1,N
